Showing default

CHEOPS, 44874

Orbit data source: Space-Track

CHEOPS, 44874 is a payload satellite owned by ESA (ESA) in SSO that was launched on Wed, 18 Dec 2019 UTC via a SOYUZ-ST-A launch vehicle from the French Guiana (FRGUI). Payload-class satellites include a variety of spacecraft equipped with specific instruments for various scientific and technological missions. These include communications satellites like Starlink; space stations such as the ISS; scientific satellites like the Hubble; Earth observation satellites from companies like Planet Labs, Umbra, and HawkEye 360; GPS; miniature CubeSats for education and research; and military/defense satellites.

Loading next visibility...
Identifier
44874, 2019-092B
Orbit
SSO
Country
Flag of ESAESA
Related business
Manufacturer
Airbus Barajas
Mission
Operational Civil Astronomy
Bus & Motor
SEOSAT, AOCS
Mass
273 kg wet, 273 kg dry
Launch date (UTC)
2019-12-18 (7 years ago)
Launch vehicle
SOYUZ-ST-A
Launch site
French Guiana (FRGUI)
Object type
Payload
Rocket body
Debris
Shape & HBR
Hex Cyl + 1 Pan, 1.2 m
Radar Cross Section
2.624 m², Large (>1 m²)

Expand to show TLE details & history
Last TLE update: 10 hours ago

TLE from 10 hours ago
0 CHEOPS
1 44874U 19092B   26263.49078910  .00000173  00000-0  43764-4 0  9994
2 44874  98.1510  90.4440 0010972 154.8568 205.3169 14.62016573359828
Epoch: 2026-09-20T11:46Z
TLE epoch observation values (Epoch: 2026-09-20T11:46:44.178Z)
Latitude
-0.00007°
Longitude
-85.62428°
Altitude
696.67 km
Speed
7.504 km/s
True Right ascension
06h 01m 46s
True Declination
0° 00' 00"
Sunlit
Object was in daylight at epoch
Visualization orbit readout
Latitude
Unknown
Longitude
Unknown
Altitude
Unknown
Speed
Unknown
Apparent Right ascension
Unknown
Apparent Declination
Unknown
Sunlit
N/A
Visualization observer readout
Local Sidereal Time
15:00:38
Azimuth
Unknown
Elevation
Unknown
Doppler factor
Unknown
Orbital elements
Apogee altitude
691.495 km
Perigee altitude
675.998 km
Semi-major axis
7,061.883 km
Eccentricity
0.0011
Inclination
98.151°
RAAN
90.444°
Arg. of periapsis
154.8568°
True anomaly
205.2632°
Mean anomaly
205.3169°
Eccentric anomaly
205.29004°
Mean motion
3.65731 °/min
Orbital period
98.43 mins
BSTAR
0.000043764
Loading maneuver chart data...
Computing Atmospheric mass density...
Loading historical data...
Loading historical data...
Loading historical data...
Loading historical data...
Loading historical data...
Loading historical data...
Loading historical data...

Documentation

Showing up to 5 results
|